Weather History for Ann Arbor, MI

Change the Weather History Date:

Monday, July 8, 2013

  Actual Average Record
Temperature  
Mean Temperature 73 °F -  
Max Temperature 84 °F 79 °F 96 °F (2007)
Min Temperature 64 °F 54 °F 50 °F (2006)
Cooling Degree Days 8    
Growing Degree Days 23 (Base 50)    
Moisture  
Dew Point 70 °F    
Average Humidity 84    
Maximum Humidity 100    
Minimum Humidity 70    
Precipitation  
Precipitation 0.04 in - - ()
Sea Level Pressure  
Sea Level Pressure 30.01 in    
Wind  
Wind Speed 4 mph (SW)    
Max Wind Speed 14 mph    
Max Gust Speed 32 mph    
Visibility 8 miles    
Events Rain , Thunderstorm    
Averages and records for this station are not official NWS values.
T = Trace of Precipitation, MM = Missing Value Source: NWS Daily Summary

Daily Weather History Graph

Daily Weather History Graph

Search for Another Location

Airport:

Trip Planner

Search our weather history database for the weather conditions in past years. The results will help you decide how hot, cold, wet, or windy it might be!

Date:

Astronomy

Jul. 08, 2013 Rise Set
Actual Time 6:06 AM EDT 9:13 PM EDT
Civil Twilight 5:32 AM EDT 9:47 PM EDT
Nautical Twilight 4:49 AM EDT 10:30 PM EDT
Astronomical Twilight 3:57 AM EDT 11:22 PM EDT
Moon 6:36 AM EDT (7/8) 9:12 PM EDT (7/8)
Length of Visible Light 16h 14m
Length of Day
15h 06m
Waxing Crescent, 0% of the Moon is Illuminated
Jul 8
Waxing Crescent
Jul 15
First Quarter
Jul 22
Full
Jul 29
Last Quarter
Aug 6
New

Hourly Weather History & Observations

Time (EDT) Temp. Heat Index Dew Point Humidity Pressure Visibility Wind Dir Wind Speed Gust Speed Precip Events Conditions
12:53 AM 68.0 °F - 66.0 °F 93% 30.04 in 6.0 mi SW 3.5 mph - N/A   Partly Cloudy
1:53 AM 66.9 °F - 66.0 °F 97% 30.03 in 4.0 mi Calm Calm - N/A   Mostly Cloudy
2:53 AM 68.0 °F - 66.0 °F 93% 30.02 in 6.0 mi Calm Calm - N/A   Mostly Cloudy
3:53 AM 68.0 °F - 66.0 °F 93% 30.03 in 7.0 mi SW 4.6 mph - N/A   Overcast
4:53 AM 68.0 °F - 66.0 °F 93% 30.02 in 5.0 mi Calm Calm - N/A   Mostly Cloudy
5:53 AM 64.9 °F - 64.9 °F 100% 30.03 in 1.8 mi Calm Calm - N/A   Partly Cloudy
6:10 AM 66.2 °F - 64.4 °F 94% 30.04 in 2.5 mi SSW 3.5 mph - N/A   Scattered Clouds
6:17 AM 66.2 °F - 64.4 °F 94% 30.03 in 3.0 mi Calm Calm - N/A   Mostly Cloudy
6:53 AM 68.0 °F - 66.9 °F 96% 30.03 in 3.0 mi SSW 3.5 mph - N/A   Partly Cloudy
7:53 AM 70.0 °F - 66.9 °F 90% 30.05 in 5.0 mi Calm Calm - N/A   Clear
8:53 AM 71.1 °F - 69.1 °F 93% 30.04 in 5.0 mi SW 4.6 mph - N/A   Mostly Cloudy
9:53 AM 73.9 °F - 70.0 °F 87% 30.03 in 7.0 mi South 3.5 mph - N/A   Clear
10:53 AM 75.0 °F - 71.1 °F 87% 30.04 in 8.0 mi SSW 6.9 mph - N/A   Clear
11:53 AM 78.1 °F - 72.0 °F 81% 30.03 in 10.0 mi South 8.1 mph - N/A   Clear
12:53 PM 82.0 °F 87.9 °F 73.9 °F 76% 30.02 in 10.0 mi South 10.4 mph - N/A   Clear
1:36 PM 82.4 °F 88.2 °F 73.4 °F 74% 30.02 in 10.0 mi SSW 9.2 mph - N/A Thunderstorm Clear
1:53 PM 82.0 °F 87.9 °F 73.9 °F 76% 29.99 in 10.0 mi SSW 9.2 mph - N/A Thunderstorm Scattered Clouds
2:37 PM 80.6 °F 86.2 °F 75.2 °F 84% 29.99 in 8.0 mi SW 9.2 mph - 0.02 in Thunderstorm Mostly Cloudy
2:44 PM 82.4 °F 89.5 °F 75.2 °F 79% 30.00 in 9.0 mi WSW 10.4 mph - 0.02 in Thunderstorm Mostly Cloudy
2:53 PM 81.0 °F 85.2 °F 72.0 °F 74% 29.99 in 10.0 mi West 12.7 mph - 0.02 in Thunderstorm Mostly Cloudy
3:16 PM 80.6 °F 84.6 °F 71.6 °F 74% 30.00 in 10.0 mi West 13.8 mph - N/A   Scattered Clouds
3:25 PM 82.4 °F 87.2 °F 71.6 °F 70% 30.00 in 10.0 mi West 9.2 mph - N/A Thunderstorm Scattered Clouds
3:40 PM 82.4 °F 87.2 °F 71.6 °F 70% 29.99 in 10.0 mi West 11.5 mph - N/A   Partly Cloudy
3:53 PM 75.9 °F - 70.0 °F 82% 29.99 in 8.0 mi WNW 13.8 mph 32.2 mph 0.00 in Rain , Thunderstorm Light Thunderstorms and Rain
4:45 PM 75.2 °F - 71.6 °F 89% 30.00 in 6.0 mi SW 4.6 mph - 0.02 in Rain Light Rain
4:53 PM 80.1 °F 84.2 °F 73.0 °F 79% 29.99 in 10.0 mi West 9.2 mph - 0.02 in   Mostly Cloudy
5:53 PM 79.0 °F - 70.0 °F 74% 29.99 in 10.0 mi SW 4.6 mph - N/A   Mostly Cloudy
6:53 PM 78.1 °F - 69.1 °F 74% 29.99 in 10.0 mi SW 3.5 mph - N/A   Overcast
7:53 PM 75.9 °F - 68.0 °F 76% 30.00 in 10.0 mi SW 4.6 mph - N/A   Overcast
8:53 PM 75.0 °F - 68.0 °F 79% 29.99 in 10.0 mi SSW 5.8 mph - N/A   Overcast
9:53 PM 73.9 °F - 68.0 °F 82% 29.99 in 10.0 mi SSW 4.6 mph - N/A   Overcast
10:53 PM 73.0 °F - 69.1 °F 87% 29.99 in 10.0 mi South 5.8 mph - N/A   Mostly Cloudy
11:53 PM 73.0 °F - 69.1 °F 87% 29.99 in 10.0 mi Calm Calm - N/A   Overcast